Weather History for KCCY - December, 2014

Change the Weather History Date:

Monday, December 1, 2014

  Actual Average Record
Temperature  
Mean Temperature 8 °F -  
Max Temperature 12 °F 33 °F 64 °F (1998)
Min Temperature 5 °F 18 °F -1 °F (1988)
Degree Days  
Heating Degree Days 56    
Moisture  
Dew Point -4 °F    
Average Humidity 59    
Maximum Humidity 67    
Minimum Humidity 45    
Precipitation  
Precipitation 0.00 in - - ()
Sea Level Pressure  
Sea Level Pressure 30.60 in    
Wind  
Wind Speed 11 mph (North)    
Max Wind Speed 17 mph    
Max Gust Speed 23 mph    
Visibility 10 miles    
Events      
Averages and records for this station are not official NWS values.
T = Trace of Precipitation, MM = Missing Value Source: NWS Daily Summary

Daily Weather History Graph

Daily Weather History Graph

Search for Another Location

Airport or City:

Trip Planner

Search our weather history database for the weather conditions in past years. The results will help you decide how hot, cold, wet, or windy it might be!

Date:

Astronomy

Dec. 01, 2014 Rise Set
Actual Time 7:22 AM CST 4:36 PM CST
Civil Twilight 6:50 AM CST 5:08 PM CST
Nautical Twilight 6:15 AM CST 5:43 PM CST
Astronomical Twilight 5:40 AM CST 6:18 PM CST
Moon 1:49 PM CST 1:51 AM CST
Length of Visible Light 10h 18m
Length of Day
9h 14m
Waxing Gibbous, 75% of the Moon is Illuminated
Dec 1
Waxing Gibbous
Dec 6
Full
Dec 14
Last Quarter
Dec 21
New
Dec 28
First Quarter

Hourly Weather History & Observations

Time (CST) Temp. Windchill Dew Point Humidity Pressure Visibility Wind Dir Wind Speed Gust Speed Precip Events Conditions
12:15 AM 8.6 °F -6.3 °F -2.2 °F 62% 30.51 in 10.0 mi NW 11.5 mph - N/A   Overcast
12:35 AM 8.6 °F -7.7 °F -2.2 °F 62% 30.52 in 10.0 mi NNW 13.8 mph 23.0 mph N/A   Overcast
12:55 AM 8.6 °F -8.3 °F -2.2 °F 62% 30.52 in 10.0 mi NW 15.0 mph - N/A   Overcast
1:15 AM 8.6 °F -9.5 °F -2.2 °F 62% 30.53 in 10.0 mi NW 17.3 mph - N/A   Overcast
1:35 AM 6.8 °F -10.0 °F -2.2 °F 67% 30.54 in 10.0 mi NW 13.8 mph - N/A   Scattered Clouds
1:55 AM 8.6 °F -7.0 °F -2.2 °F 62% 30.55 in 10.0 mi NW 12.7 mph - N/A   Scattered Clouds
2:15 AM 8.6 °F -7.0 °F -2.2 °F 62% 30.55 in 10.0 mi NW 12.7 mph - N/A   Partly Cloudy
2:35 AM 8.6 °F -6.3 °F -2.2 °F 62% 30.56 in 10.0 mi NW 11.5 mph - N/A   Clear
2:55 AM 8.6 °F -7.7 °F -2.2 °F 62% 30.57 in 10.0 mi NW 13.8 mph - N/A   Partly Cloudy
3:15 AM 8.6 °F -7.7 °F -2.2 °F 62% 30.57 in 10.0 mi NW 13.8 mph - N/A   Scattered Clouds
3:35 AM 8.6 °F -6.3 °F -2.2 °F 62% 30.57 in 10.0 mi NW 11.5 mph - N/A   Partly Cloudy
3:55 AM 8.6 °F -7.0 °F -2.2 °F 62% 30.57 in 10.0 mi NNW 12.7 mph 19.6 mph N/A   Partly Cloudy
4:15 AM 8.6 °F -8.3 °F -2.2 °F 62% 30.57 in 10.0 mi NNW 15.0 mph - N/A   Clear
4:35 AM 8.6 °F -8.3 °F -2.2 °F 62% 30.58 in 10.0 mi NNW 15.0 mph 21.9 mph N/A   Clear
4:55 AM 8.6 °F -8.9 °F -4.0 °F 57% 30.59 in 10.0 mi NW 16.1 mph - N/A   Partly Cloudy
5:15 AM 6.8 °F -10.7 °F -4.0 °F 61% 30.59 in 10.0 mi NW 15.0 mph - N/A   Clear
5:35 AM 6.8 °F -8.6 °F -4.0 °F 61% 30.60 in 10.0 mi NW 11.5 mph 17.3 mph N/A   Clear
5:55 AM 6.8 °F -10.0 °F -4.0 °F 61% 30.62 in 10.0 mi NW 13.8 mph - N/A   Clear
6:15 AM 6.8 °F -10.7 °F -4.0 °F 61% 30.62 in 10.0 mi NNW 15.0 mph - N/A   Clear
6:35 AM 6.8 °F -10.0 °F -4.0 °F 61% 30.63 in 10.0 mi NNW 13.8 mph - N/A   Clear
6:55 AM 5.0 °F -11.6 °F -5.8 °F 61% 30.64 in 10.0 mi NNW 12.7 mph - N/A   Clear
7:15 AM 5.0 °F -13.6 °F -5.8 °F 61% 30.66 in 10.0 mi NNW 16.1 mph - N/A   Clear
7:35 AM 5.0 °F -11.6 °F -5.8 °F 61% 30.66 in 10.0 mi NNW 12.7 mph 21.9 mph N/A   Clear
7:55 AM 5.0 °F -11.6 °F -5.8 °F 61% 30.67 in 10.0 mi NNW 12.7 mph 19.6 mph N/A   Clear
8:15 AM 5.0 °F -13.6 °F -5.8 °F 61% 30.68 in 10.0 mi NNW 16.1 mph - N/A   Clear
8:35 AM 5.0 °F -13.6 °F -7.6 °F 56% 30.69 in 10.0 mi NNW 16.1 mph - N/A   Clear
8:55 AM 5.0 °F -14.2 °F -7.6 °F 56% 30.69 in 10.0 mi NNW 17.3 mph - N/A   Clear
9:15 AM 5.0 °F -14.2 °F -7.6 °F 56% 30.71 in 10.0 mi NNW 17.3 mph - N/A   Clear
9:35 AM 5.0 °F -13.0 °F -7.6 °F 56% 30.71 in 10.0 mi North 15.0 mph 20.7 mph N/A   Clear
9:55 AM 5.0 °F -12.3 °F -7.6 °F 56% 30.72 in 10.0 mi NNW 13.8 mph 20.7 mph N/A   Clear
10:15 AM 6.8 °F -11.3 °F -5.8 °F 56% 30.72 in 10.0 mi North 16.1 mph - N/A   Clear
10:35 AM 6.8 °F -9.3 °F -5.8 °F 56% 30.73 in 10.0 mi NNW 12.7 mph - N/A   Clear
10:55 AM 6.8 °F -7.8 °F -5.8 °F 56% 30.73 in 10.0 mi NNW 10.4 mph 17.3 mph N/A   Clear
11:15 AM 6.8 °F -7.8 °F -7.6 °F 52% 30.72 in 10.0 mi NNW 10.4 mph - N/A   Clear
11:35 AM 6.8 °F -8.6 °F -7.6 °F 52% 30.70 in 10.0 mi North 11.5 mph - N/A   Clear
11:55 AM 6.8 °F -7.8 °F -7.6 °F 52% 30.69 in 10.0 mi North 10.4 mph 18.4 mph N/A   Clear
12:15 PM 8.6 °F -3.7 °F -5.8 °F 52% 30.69 in 10.0 mi North 8.1 mph 13.8 mph N/A   Clear
12:35 PM 8.6 °F -4.7 °F -5.8 °F 52% 30.68 in 10.0 mi North 9.2 mph - N/A   Clear
12:55 PM 8.6 °F -4.7 °F -5.8 °F 52% 30.66 in 10.0 mi North 9.2 mph - N/A   Clear
1:15 PM 10.4 °F -0.4 °F -5.8 °F 48% 30.65 in 10.0 mi NNE 6.9 mph 15.0 mph N/A   Clear
1:35 PM 10.4 °F -0.4 °F -5.8 °F 48% 30.65 in 10.0 mi NNE 6.9 mph 12.7 mph N/A   Clear
1:55 PM 10.4 °F -1.5 °F -5.8 °F 48% 30.65 in 10.0 mi North 8.1 mph - N/A   Clear
2:15 PM 10.4 °F 2.2 °F -5.8 °F 48% 30.64 in 10.0 mi NE 4.6 mph - N/A   Clear
2:35 PM 12.2 °F 2.9 °F -5.8 °F 45% 30.64 in 10.0 mi Variable 5.8 mph - N/A   Clear
2:55 PM 12.2 °F 4.3 °F -5.8 °F 45% 30.64 in 10.0 mi NNE 4.6 mph - N/A   Clear
3:15 PM 12.2 °F 4.3 °F -5.8 °F 45% 30.64 in 10.0 mi NE 4.6 mph - N/A   Clear
3:35 PM 12.2 °F 4.3 °F -4.0 °F 48% 30.63 in 10.0 mi NNE 4.6 mph - N/A   Clear
3:55 PM 12.2 °F - -5.8 °F 45% 30.63 in 10.0 mi Calm Calm - N/A   Clear
4:15 PM 10.4 °F 2.2 °F -4.0 °F 52% 30.63 in 10.0 mi East 4.6 mph - N/A   Clear
4:35 PM 10.4 °F 2.2 °F -4.0 °F 52% 30.63 in 10.0 mi East 4.6 mph - N/A   Clear
4:55 PM 8.6 °F 0.1 °F -4.0 °F 57% 30.61 in 10.0 mi ESE 4.6 mph - N/A   Clear
5:15 PM 8.6 °F 0.1 °F -4.0 °F 57% 30.61 in 10.0 mi ESE 4.6 mph - N/A   Clear
5:35 PM 8.6 °F 0.1 °F -4.0 °F 57% 30.60 in 10.0 mi ESE 4.6 mph - N/A   Clear
5:55 PM 6.8 °F -0.1 °F -4.0 °F 61% 30.59 in 10.0 mi East 3.5 mph - N/A   Clear
6:15 PM 6.8 °F -0.1 °F -4.0 °F 61% 30.59 in 10.0 mi SE 3.5 mph - N/A   Clear
6:35 PM 6.8 °F -2.0 °F -4.0 °F 61% 30.58 in 10.0 mi SE 4.6 mph - N/A   Clear
6:55 PM 6.8 °F -4.8 °F -4.0 °F 61% 30.57 in 10.0 mi SE 6.9 mph - N/A   Clear
7:15 PM 6.8 °F -2.0 °F -4.0 °F 61% 30.57 in 10.0 mi SSE 4.6 mph - N/A   Clear
7:35 PM 6.8 °F -3.5 °F -4.0 °F 61% 30.56 in 10.0 mi SE 5.8 mph - N/A   Clear
7:55 PM 5.0 °F -5.6 °F -4.0 °F 66% 30.55 in 10.0 mi SE 5.8 mph - N/A   Clear
8:15 PM 5.0 °F -5.6 °F -4.0 °F 66% 30.55 in 10.0 mi SE 5.8 mph - N/A   Clear
8:35 PM 5.0 °F -5.6 °F -4.0 °F 66% 30.53 in 10.0 mi SE 5.8 mph - N/A   Clear
8:55 PM 5.0 °F -6.9 °F -4.0 °F 66% 30.52 in 10.0 mi SE 6.9 mph - N/A   Clear
9:15 PM 6.8 °F -5.9 °F -4.0 °F 61% 30.52 in 10.0 mi SSE 8.1 mph - N/A   Clear
9:35 PM 6.8 °F -4.8 °F -2.2 °F 67% 30.52 in 10.0 mi SE 6.9 mph - N/A   Clear
9:55 PM 6.8 °F -5.9 °F -2.2 °F 67% 30.51 in 10.0 mi SE 8.1 mph - N/A   Mostly Cloudy
10:15 PM 6.8 °F -6.9 °F -2.2 °F 67% 30.50 in 10.0 mi SSE 9.2 mph - N/A   Overcast
10:35 PM 8.6 °F -3.7 °F -0.4 °F 67% 30.49 in 10.0 mi SSE 8.1 mph - N/A   Overcast
10:55 PM 8.6 °F -3.7 °F -0.4 °F 67% 30.49 in 10.0 mi SSE 8.1 mph - N/A   Overcast
11:15 PM 10.4 °F -2.4 °F 1.4 °F 67% 30.48 in 10.0 mi SSE 9.2 mph - N/A   Overcast
11:35 PM 10.4 °F -3.3 °F 1.4 °F 67% 30.47 in 10.0 mi SSE 10.4 mph - N/A   Overcast
11:55 PM 10.4 °F -3.3 °F 1.4 °F 67% 30.47 in 10.0 mi SSE 10.4 mph - N/A   Overcast